Location: Dackenheim
(49.5215°N, 8.1854°E)
Time: 23:57:37
(UTC+00:00)

JY1SAT - Pass Details

Date: 16 March 2026
Orbit: 466 x 476 km, 97.4° (Epoch: 13 April)

Event Time Altitude Azimuth Distance (km) Brightness Sun altitude
Exits shadow 21:26:16 11° 316° (NW) 1,607 ? -34.6°
Drops below altitude 10° 21:26:27 10° 318° (NW) 1,666 ? -34.6°
Sets 21:28:54 0° 335° (NNW) 2,551 ? -34.9°
